Greenville, SC

1:02 AM EST on February 21, 2017 (GMT -0500)
Greenville Downtown

Weather History for KGMU - August, 2012

Change the Weather History Date:

Friday, August 24, 2012

  Actual Average Record
Temperature  
Mean Temperature 76 °F -  
Max Temperature 84 °F 85 °F 93 °F (1998)
Min Temperature 68 °F 68 °F 62 °F (1997)
Cooling Degree Days 11    
Growing Degree Days 26 (Base 50)    
Moisture  
Dew Point 62 °F    
Average Humidity 64    
Maximum Humidity 84    
Minimum Humidity 42    
Precipitation  
Precipitation 0.00 in - - ()
Sea Level Pressure  
Sea Level Pressure 30.12 in    
Wind  
Wind Speed 5 mph (NE)    
Max Wind Speed 9 mph    
Max Gust Speed -    
Visibility 10 miles    
Events      
Averages and records for this station are not official NWS values.
T = Trace of Precipitation, MM = Missing Value Source: NWS Daily Summary

Daily Weather History Graph

Daily Weather History Graph

Search for Another Location

Airport or City:

Trip Planner

Search our weather history database for the weather conditions in past years. The results will help you decide how hot, cold, wet, or windy it might be!

Date:

Astronomy

Aug. 24, 2012 Rise Set
Actual Time 6:56 AM EDT 8:05 PM EDT
Civil Twilight 6:30 AM EDT 8:32 PM EDT
Nautical Twilight 5:59 AM EDT 9:03 PM EDT
Astronomical Twilight 5:27 AM EDT 9:35 PM EDT
Moon 2:27 PM EDT (8/24) No Moon Set
Length of Visible Light 14h 01m
Length of Day
13h 09m
Waxing Crescent, 51% of the Moon is Illuminated
Aug 24
Waxing Crescent
Aug 31
Full
Sep 8
Last Quarter
Sep 15
New
Sep 22
First Quarter

Hourly Weather History & Observations

Time (EDT) Temp. Heat Index Dew Point Humidity Pressure Visibility Wind Dir Wind Speed Gust Speed Precip Events Conditions
12:53 AM 72.0 °F - 64.9 °F 78% 30.13 in 10.0 mi Calm Calm - N/A   Partly Cloudy
1:53 AM 70.0 °F - 64.9 °F 84% 30.12 in 10.0 mi North 5.8 mph - N/A   Clear
2:53 AM 70.0 °F - 64.9 °F 84% 30.12 in 10.0 mi North 5.8 mph - N/A   Mostly Cloudy
3:53 AM 70.0 °F - 64.9 °F 84% 30.10 in 10.0 mi North 5.8 mph - N/A   Clear
4:53 AM 70.0 °F - 63.0 °F 78% 30.09 in 10.0 mi North 4.6 mph - N/A   Clear
5:53 AM 68.0 °F - 63.0 °F 84% 30.11 in 10.0 mi North 4.6 mph - N/A   Clear
6:53 AM 68.0 °F - 63.0 °F 84% 30.12 in 10.0 mi North 6.9 mph - N/A   Clear
7:53 AM 70.0 °F - 63.0 °F 78% 30.14 in 10.0 mi NNE 9.2 mph - N/A   Clear
8:53 AM 73.0 °F - 64.0 °F 73% 30.15 in 10.0 mi NNE 9.2 mph - N/A   Clear
9:53 AM 75.9 °F - 64.0 °F 67% 30.16 in 10.0 mi NNE 6.9 mph - N/A   Clear
10:53 AM 79.0 °F - 63.0 °F 58% 30.16 in 10.0 mi NE 6.9 mph - N/A   Clear
11:53 AM 79.0 °F - 62.1 °F 56% 30.16 in 10.0 mi Variable 3.5 mph - N/A   Partly Cloudy
12:53 PM 82.9 °F 83.7 °F 62.1 °F 49% 30.14 in 10.0 mi East 9.2 mph - N/A   Scattered Clouds
1:53 PM 82.0 °F 83.0 °F 62.1 °F 51% 30.14 in 10.0 mi NE 9.2 mph - N/A   Mostly Cloudy
2:53 PM 82.9 °F 83.7 °F 62.1 °F 49% 30.12 in 10.0 mi Variable 3.5 mph - N/A   Scattered Clouds
3:53 PM 82.9 °F 83.3 °F 61.0 °F 47% 30.09 in 10.0 mi East 5.8 mph - N/A   Clear
4:53 PM 84.0 °F 84.5 °F 62.1 °F 47% 30.09 in 10.0 mi ENE 9.2 mph - N/A   Clear
5:53 PM 82.9 °F 83.2 °F 60.1 °F 46% 30.08 in 10.0 mi ESE 6.9 mph - N/A   Clear
6:53 PM 81.0 °F 80.8 °F 55.9 °F 42% 30.09 in 10.0 mi ESE 6.9 mph - N/A   Partly Cloudy
7:53 PM 80.1 °F 80.7 °F 59.0 °F 48% 30.10 in 10.0 mi East 4.6 mph - N/A   Clear
8:53 PM 78.1 °F - 59.0 °F 52% 30.11 in 10.0 mi Calm Calm - N/A   Partly Cloudy
9:53 PM 73.9 °F - 62.1 °F 66% 30.12 in 10.0 mi North 4.6 mph - N/A   Clear
10:53 PM 73.9 °F - 61.0 °F 64% 30.14 in 10.0 mi NE 5.8 mph - N/A   Clear
11:53 PM 72.0 °F - 62.1 °F 71% 30.14 in 10.0 mi NE 4.6 mph - N/A   Clear